GFSCGP_850_temp_198.txt.gz
Temp
31 30 30 31 33 33 30 26 23 29 32 32 34 27 28 29 28 26 25 26 25 24 23 24 23 23 21 21 20 20 20 20 20 19 19 20 20 21 22 21 21 20 19 21
30 30 31 33 33 32 29 23 26 24 32 35 35 32 31 30 29 27 26 26 26 24 23 23 23 23 22 21 20 20 20 19 19 19 20 21 21 22 22 21 21 20 19 21
30 31 33 32 32 33 33 29 30 32 27 35 34 34 30 30 30 28 27 26 26 26 24 23 23 23 23 22 20 20 19 19 19 19 20 20 21 21 22 21 21 20 20 20
31 32 32 33 32 33 32 34 34 32 34 33 35 32 33 32 31 31 28 27 26 26 26 23 22 22 23 22 21 20 19 19 20 19 20 20 21 21 21 22 21 21 20 21
30 31 32 32 33 34 33 35 35 35 35 34 34 33 33 33 32 31 31 28 27 26 26 25 23 22 23 23 22 20 20 19 19 20 20 20 20 21 22 22 22 21 21 21
31 33 33 33 34 35 35 34 35 35 34 32 34 34 35 34 33 33 32 31 29 27 27 25 24 23 23 23 22 21 20 20 19 20 20 19 20 21 21 21 21 21 22 22
30 31 33 34 33 35 34 33 32 31 32 32 35 35 33 31 28 28 33 32 31 29 28 26 25 23 23 23 23 22 21 20 20 19 21 20 20 20 21 21 21 21 22 22
28 29 32 34 33 33 34 34 33 30 31 33 34 33 33 25 23 26 28 33 31 30 29 28 26 25 24 24 23 22 21 21 20 20 20 21 21 21 21 21 21 21 21 22
29 29 33 33 35 34 33 33 35 33 34 32 27 32 31 30 30 35 34 33 32 31 30 28 27 26 24 24 23 23 22 21 21 21 21 21 22 21 22 21 21 21 21 22
29 29 32 34 34 35 34 35 33 33 30 30 25 25 28 29 33 36 36 34 32 31 30 29 28 26 25 24 23 23 22 22 21 21 20 21 21 22 22 21 21 21 20 20
30 29 30 33 33 33 33 33 34 34 34 32 30 29 28 31 31 37 37 34 32 31 31 29 28 26 25 24 23 23 22 21 21 21 20 20 22 22 23 22 23 23 22 21
29 30 29 31 34 34 34 33 33 33 31 34 32 29 26 28 30 37 37 34 32 31 31 30 29 27 25 25 24 23 23 22 22 21 20 21 22 23 23 24 24 24 23 22
23 27 28 29 33 34 33 34 34 34 34 32 32 30 26 27 32 37 36 33 32 31 31 30 29 28 26 26 25 24 23 23 22 22 21 21 21 23 24 24 25 24 22 21
21 24 26 29 30 33 32 33 34 34 33 33 34 33 33 30 28 36 35 33 32 31 31 30 29 28 27 26 25 25 24 23 23 22 22 21 22 23 24 24 25 23 21 21
23 22 25 28 30 33 33 33 33 34 34 33 34 35 34 29 23 32 34 33 32 31 31 29 29 28 27 26 26 25 24 24 23 23 23 24 24 23 24 24 24 22 22 23
23 23 25 26 28 31 32 34 33 34 34 34 35 32 30 26 29 30 33 32 31 31 31 29 29 28 27 26 26 25 25 24 24 23 24 24 24 23 24 23 24 22 23 28
20 21 23 23 27 29 30 33 34 33 34 35 34 30 28 25 21 25 33 32 31 31 31 29 29 28 27 27 26 25 25 25 24 24 24 24 24 25 24 24 23 24 24 25
18 19 21 23 26 25 30 34 35 34 34 35 35 34 28 27 29 33 34 33 32 31 31 30 29 28 27 26 26 25 25 25 25 24 24 25 25 25 24 25 24 24 24 23
20 20 21 22 24 27 30 32 33 34 33 35 35 36 30 27 28 28 31 33 32 32 32 31 29 28 27 26 26 25 25 25 25 25 25 26 26 25 24 25 26 25 23 22
20 20 20 23 24 25 29 33 34 35 32 35 35 35 35 32 30 21 30 34 33 33 32 31 30 29 28 27 26 26 25 25 26 27 28 28 27 26 26 26 27 26 22 23
19 20 20 21 23 27 31 32 33 30 29 29 31 31 35 27 29 32 33 35 34 33 33 32 31 31 30 29 28 27 27 26 29 28 28 28 28 27 28 28 26 24 22 22
20 19 20 21 23 24 26 27 27 24 25 25 26 27 28 30 31 32 32 34 35 34 34 33 32 31 31 31 29 29 28 31 29 27 27 26 26 25 25 25 24 22 22 21
21 22 22 23 24 26 24 23 22 23 24 24 25 26 26 28 29 30 31 32 32 33 33 34 33 33 32 31 31 30 31 30 30 27 26 25 25 24 24 23 23 22 20 20
22 23 23 24 25 26 24 22 21 22 23 24 24 25 26 26 26 27 27 28 29 30 32 32 33 32 32 31 30 31 31 29 28 27 26 25 25 24 23 22 23 23 20 19
15 16 19 23 20 21 21 20 21 21 22 22 21 22 23 24 25 26 27 27 28 28 30 31 32 32 32 32 31 31 29 28 27 26 25 25 24 23 23 22 23 22 20 22
11 12 13 13 17 18 19 20 21 21 22 21 20 21 23 24 25 25 26 26 27 28 28 30 30 31 32 31 31 31 30 29 27 25 24 23 22 22 22 22 22 19 20 20

GFSCGP_850_temp_201.txt.gz
Temp
28 25 24 26 27 28 28 26 24 25 27 26 26 26 25 26 27 25 25 24 24 23 24 22 22 22 22 21 21 20 20 20 20 20 21 21 21 21 21 21 21 22 22 21
25 25 28 29 29 29 29 24 23 26 28 24 26 27 26 26 27 26 25 24 24 23 23 23 22 22 22 21 21 20 20 20 20 20 21 20 21 21 22 21 21 21 22 21
25 27 30 30 29 29 29 25 25 25 28 24 26 26 25 26 27 26 26 25 24 23 23 23 23 23 22 22 21 21 20 20 20 21 20 20 20 21 21 21 21 21 22 21
26 28 29 29 29 29 27 29 31 30 27 23 26 24 26 26 27 26 25 25 24 24 23 23 23 22 22 22 21 21 20 20 20 20 20 20 20 21 22 22 21 21 21 21
26 27 28 28 29 30 29 31 31 31 28 28 30 26 27 27 26 25 26 25 25 24 23 23 23 23 22 22 22 21 21 20 20 20 20 20 21 21 21 21 21 21 22 21
27 29 29 29 31 31 32 31 30 30 30 27 28 27 27 26 27 26 26 26 25 25 23 23 23 23 23 22 22 21 21 21 20 20 20 20 21 21 21 21 21 21 21 21
26 27 29 30 29 30 30 28 26 25 26 24 28 28 25 28 27 25 23 27 26 26 24 23 22 22 23 22 22 22 21 21 21 21 20 20 21 21 21 21 21 22 21 21
23 23 27 30 28 28 28 28 26 24 25 26 29 26 28 27 27 27 28 28 27 26 26 24 23 23 23 23 21 22 22 21 21 21 20 20 21 21 21 21 21 22 22 21
22 24 28 30 30 30 29 27 28 26 28 27 26 26 26 25 27 26 26 27 28 27 26 25 23 23 23 23 22 22 22 22 21 21 21 21 21 21 22 22 22 22 22 21
25 23 26 29 30 30 28 30 27 27 25 25 26 25 25 27 26 25 25 27 28 27 27 25 24 23 24 23 23 22 22 22 22 21 22 22 22 22 22 22 23 23 22 21
25 24 25 26 26 28 29 28 28 27 25 25 23 23 26 27 28 27 28 30 29 29 28 26 25 24 24 24 23 23 22 22 22 22 22 22 22 23 22 23 23 24 22 22
20 21 23 25 27 29 30 28 28 27 25 25 25 25 29 27 28 27 27 29 30 30 28 27 26 24 23 23 23 23 22 22 22 22 22 22 22 23 23 23 24 23 23 23
19 17 20 22 25 27 27 30 28 27 25 26 25 26 27 26 25 28 28 29 29 30 29 28 27 25 24 23 23 23 23 22 22 22 22 22 22 23 23 24 24 24 24 24
21 18 18 19 22 25 26 29 30 28 27 26 28 26 28 28 28 28 29 28 30 29 29 27 27 25 25 25 24 23 23 22 22 22 22 22 23 23 24 24 25 25 25 25
19 17 18 21 23 25 26 27 30 28 28 27 29 25 26 27 26 26 29 28 29 29 28 28 27 26 25 25 24 24 23 23 22 22 22 22 23 24 24 24 25 25 25 26
17 16 17 19 23 24 25 27 27 31 30 29 29 27 24 25 29 28 26 26 28 29 28 28 28 26 25 25 25 24 24 23 23 23 23 23 23 23 24 24 25 26 26 25
14 14 15 17 21 23 22 25 27 28 30 29 28 27 25 24 24 23 24 25 27 30 29 29 28 28 27 26 26 25 24 24 23 23 23 23 23 23 24 25 25 25 26 26
13 13 15 16 19 20 23 26 28 29 31 30 30 27 27 26 28 29 28 29 29 30 30 29 29 28 28 27 26 26 25 24 24 24 24 24 24 24 24 25 25 25 25 25
15 14 14 16 18 21 24 26 27 27 28 29 29 26 26 28 29 30 32 30 30 30 30 30 29 29 28 27 27 26 25 25 24 24 24 24 24 25 25 25 25 25 25 25
15 14 14 14 16 20 22 26 28 27 23 23 24 26 26 27 25 24 29 31 29 30 31 30 29 29 28 28 27 26 26 25 25 25 25 25 25 26 26 27 26 26 25 24
14 14 14 15 16 20 22 24 26 24 19 23 24 24 26 25 27 32 30 30 29 29 30 31 30 29 29 28 27 27 26 25 26 25 25 25 25 26 26 26 26 25 24 22
14 14 14 15 17 18 21 22 19 20 23 23 22 23 25 27 29 30 31 30 30 29 29 31 30 30 30 29 28 28 27 30 27 26 26 26 26 25 25 25 25 24 23 22
14 17 16 17 18 20 20 20 21 21 22 21 21 22 23 24 26 28 29 30 29 28 29 29 31 31 30 30 29 29 31 30 29 28 28 28 27 27 25 25 23 23 23 21
14 17 17 17 15 19 19 20 21 21 21 21 21 21 21 23 24 26 28 28 28 28 29 30 29 30 31 30 30 31 31 30 29 28 28 27 26 25 25 24 24 23 23 22
11 12 11 16 14 16 19 20 20 21 21 20 20 20 19 19 20 22 25 27 29 27 28 29 30 29 30 31 31 31 30 30 29 29 28 27 27 26 25 24 24 23 24 25
9 9 10 10 12 11 15 17 18 19 20 18 18 19 18 18 19 20 22 24 25 26 27 28 29 30 30 29 31 32 31 30 29 29 28 27 26 25 24 24 23 22 22 23

GFSCGP_850_temp_207.txt.gz
Temp
25 22 21 23 22 24 24 25 24 24 26 26 24 24 21 20 20 19 19 19 20 20 21 21 21 20 21 21 20 20 20 20 20 20 20 20 20 20 20 20 20 20 21 21
22 21 22 24 23 24 23 24 23 24 25 24 23 23 23 21 20 20 20 20 20 21 22 21 21 21 21 21 20 20 21 21 21 21 20 20 20 21 21 20 20 21 21 21
22 23 24 24 24 24 23 22 23 24 26 25 23 23 23 22 22 21 21 21 21 21 22 22 21 21 21 21 20 21 21 21 21 21 21 20 21 21 21 20 21 21 21 21
21 23 24 23 24 23 22 23 25 24 24 24 24 22 23 21 22 22 21 21 21 21 22 22 21 21 21 21 21 21 21 21 21 21 21 21 21 21 21 21 21 21 21 20
21 22 22 23 24 24 23 25 24 25 24 24 25 23 24 21 21 22 22 22 21 21 22 22 22 21 22 21 21 21 22 21 21 21 21 21 21 21 21 21 21 21 21 20
21 23 22 23 24 24 25 25 24 23 20 20 26 23 26 20 21 22 23 22 21 21 22 23 22 22 22 22 21 21 21 22 21 21 21 21 21 21 20 20 21 21 21 20
21 21 23 25 24 24 24 20 19 20 19 23 24 22 26 26 25 25 23 23 22 22 22 22 22 22 22 22 21 21 21 21 21 21 21 21 21 21 21 21 21 21 21 21
18 20 21 23 22 21 21 19 17 20 20 22 22 22 26 25 24 26 25 24 23 22 22 22 23 22 22 22 22 21 21 21 21 21 21 21 21 21 21 21 21 22 21 20
16 17 21 23 23 23 22 20 21 21 20 20 21 23 25 24 24 24 24 24 23 22 22 22 22 22 22 22 22 22 22 22 22 21 21 21 21 21 21 22 21 21 21 20
18 18 19 24 23 23 22 22 20 16 20 20 20 22 23 26 24 23 23 24 24 23 22 22 21 22 22 23 22 22 22 22 22 22 21 21 22 22 22 22 22 21 21 21
15 16 19 22 21 22 21 21 20 18 18 21 20 20 21 24 23 23 23 24 24 24 23 22 22 22 22 22 22 22 22 22 22 22 22 21 22 22 22 22 22 22 21 21
15 12 15 20 21 22 20 20 21 21 20 17 19 23 24 23 23 24 25 25 24 24 24 23 22 22 21 22 22 22 22 22 22 22 22 22 22 22 22 22 23 22 22 22
13 12 13 19 19 20 23 22 21 17 17 19 20 21 24 22 22 24 24 25 25 24 24 23 22 22 21 21 22 23 22 23 23 22 22 22 22 22 23 23 23 23 23 22
14 10 12 13 15 15 18 20 22 19 17 19 18 23 23 24 23 22 25 27 27 26 25 24 22 22 22 22 22 23 23 23 23 22 22 22 22 22 23 23 23 23 23 23
10 12 13 12 14 15 18 19 21 20 20 20 22 21 23 23 22 23 26 26 26 26 26 24 23 22 23 23 22 23 24 24 23 22 23 22 22 22 22 23 23 23 24 23
8 11 10 13 16 17 18 20 21 21 24 21 20 21 21 24 24 24 26 26 27 29 28 26 23 21 21 23 24 23 24 24 24 23 23 23 22 22 22 23 23 23 24 24
9 9 9 13 13 15 20 22 22 23 20 20 21 21 18 21 21 23 26 27 30 30 26 25 24 23 23 24 25 23 25 25 24 24 24 23 23 22 23 23 23 24 24 24
10 9 8 10 12 18 19 20 20 22 20 19 19 19 19 19 25 29 29 28 28 27 27 26 25 25 24 24 25 25 25 25 24 24 24 23 23 23 23 23 23 24 24 25
8 8 10 11 10 15 19 19 18 19 20 19 18 18 18 20 24 24 26 28 27 28 28 27 27 26 27 25 25 25 25 25 24 24 24 24 23 23 23 23 23 24 24 24
7 9 10 10 12 15 17 17 17 18 17 19 18 17 17 21 21 22 27 27 26 27 27 26 27 26 28 26 25 25 25 26 24 24 25 24 23 23 23 24 24 24 24 24
9 9 10 10 12 13 15 14 18 17 16 17 17 16 17 16 16 19 27 27 27 28 28 27 26 27 28 27 26 25 26 26 26 26 25 25 24 24 24 24 24 24 24 24
9 9 9 9 12 14 13 15 14 13 14 16 16 16 15 16 17 21 23 26 27 28 28 29 28 29 28 28 27 27 26 28 26 26 25 25 24 24 24 24 24 24 24 24
8 8 8 8 10 10 11 11 10 11 11 15 15 15 16 16 17 18 20 24 25 27 29 27 28 29 28 28 28 28 28 27 26 26 26 26 25 25 24 24 24 24 24 24
7 8 8 8 9 9 10 10 10 10 11 14 14 15 15 16 16 18 19 20 22 24 25 25 25 28 29 29 29 28 28 28 27 26 26 26 25 25 25 24 24 24 24 24
7 7 7 9 9 9 12 10 9 10 12 14 14 14 14 16 15 16 17 18 19 21 23 24 24 25 27 27 27 26 27 26 27 27 26 26 26 26 25 25 25 25 26 26
6 6 6 7 7 7 8 9 9 10 10 12 13 15 15 15 15 15 16 17 18 19 21 22 22 24 26 26 25 25 25 25 26 26 26 27 27 26 26 25 25 26 26 26

GFSCGP_850_temp_210.txt.gz
Temp
24 21 21 22 22 23 24 24 24 23 25 24 23 22 19 19 18 18 18 18 18 20 21 20 20 20 20 20 20 20 20 20 19 20 20 20 20 20 20 20 20 20 20 20
21 20 21 23 22 24 23 24 23 23 24 23 22 22 20 19 19 19 19 18 18 19 20 20 20 20 20 20 20 20 20 19 20 20 20 20 20 20 20 20 20 20 20 20
21 22 23 23 23 23 22 22 22 24 24 24 23 22 22 19 20 19 19 19 19 20 21 21 21 21 20 21 21 21 20 20 20 20 20 20 20 20 20 20 20 20 20 20
20 22 23 22 23 22 21 22 24 24 23 22 23 21 22 20 19 19 19 19 19 19 21 21 21 21 21 21 21 21 21 20 21 20 20 20 20 21 21 21 20 20 20 20
20 20 21 22 22 23 22 24 23 24 22 22 23 21 21 19 19 19 20 20 20 20 20 21 21 21 21 21 22 21 21 21 21 21 20 20 20 21 21 21 20 20 20 20
20 22 21 22 23 23 24 24 20 18 18 18 22 22 21 21 21 20 21 20 20 20 21 21 22 22 22 21 21 21 21 21 21 21 21 21 21 21 21 21 20 21 21 20
20 21 22 24 23 23 21 19 18 19 18 19 22 20 24 24 24 23 21 21 21 20 20 20 22 22 22 22 21 21 21 21 21 21 21 21 21 21 21 21 21 21 21 21
17 19 20 22 21 20 19 18 17 20 18 20 20 21 24 24 26 25 25 25 21 20 21 21 22 22 22 22 21 21 21 21 21 21 21 21 21 21 21 21 21 21 21 21
15 18 20 21 21 22 21 19 19 19 18 18 19 22 24 24 24 24 23 23 22 20 20 21 21 22 22 22 22 21 21 21 22 22 22 22 22 22 22 21 21 21 21 21
16 18 19 22 22 22 20 19 19 14 19 19 19 19 22 24 25 23 22 22 22 21 21 20 21 22 22 22 23 22 22 22 22 22 22 22 22 22 22 22 21 21 21 21
14 15 18 20 19 19 19 19 16 16 16 18 19 21 20 25 24 22 21 23 22 22 21 21 21 22 23 23 23 23 22 22 22 22 22 22 22 22 22 22 22 22 21 21
13 11 15 17 18 20 19 18 19 19 18 15 17 23 23 24 23 23 23 23 23 23 22 21 21 21 22 23 23 23 23 22 22 22 22 22 22 22 22 23 22 22 22 21
14 11 13 15 18 17 20 19 17 15 15 19 19 20 23 21 22 24 23 24 24 23 22 22 21 21 22 22 22 23 23 23 23 22 22 22 22 22 22 23 23 23 22 22
12 9 12 13 16 14 16 19 19 17 16 17 17 21 22 24 22 23 25 24 24 24 23 23 22 22 22 23 22 22 23 23 23 23 22 22 22 22 22 23 23 23 23 22
9 11 11 11 12 14 15 17 18 18 18 20 21 19 21 22 22 23 28 25 24 24 24 24 24 23 23 22 22 22 23 23 23 23 22 22 23 22 22 22 23 23 23 23
7 11 10 12 14 15 16 17 18 18 20 18 19 19 19 19 20 22 26 27 25 25 25 25 24 22 22 23 23 23 22 23 23 23 23 23 23 23 23 22 22 23 23 23
8 8 9 13 11 13 16 17 19 20 18 18 19 19 17 17 17 19 24 27 28 30 28 26 26 25 23 23 24 24 25 24 23 23 23 23 23 23 23 23 22 23 23 23
9 8 7 9 11 16 18 17 18 18 18 17 16 17 17 17 17 19 22 23 26 26 30 29 27 26 24 23 23 23 23 24 24 24 24 24 23 23 23 23 23 23 23 23
7 7 9 10 10 13 17 16 15 15 17 16 16 17 18 17 19 21 22 23 24 25 27 27 28 26 23 23 23 22 22 24 24 24 24 24 24 24 23 23 23 23 23 23
5 6 9 8 11 13 14 14 13 15 15 14 14 16 17 16 17 18 20 23 25 25 27 28 27 24 24 23 22 22 22 24 24 24 25 25 25 24 24 23 23 24 23 24
7 7 8 9 10 12 11 12 13 15 14 11 13 14 15 16 16 15 17 22 22 25 27 27 26 26 26 24 23 22 22 24 26 26 26 25 25 25 24 24 23 23 23 24
7 8 8 8 10 12 11 12 13 11 10 11 12 13 14 14 15 15 17 18 21 24 26 27 26 26 26 25 24 23 23 28 26 25 25 25 25 25 24 24 23 23 23 23
7 7 7 8 9 9 9 10 9 9 10 10 12 13 13 13 14 15 16 17 18 19 24 26 25 26 25 25 25 24 28 27 26 25 26 25 25 24 24 24 23 23 23 23
6 7 7 8 9 8 9 9 8 9 10 10 11 12 12 13 13 15 15 17 18 18 18 22 23 22 24 24 24 26 27 27 26 25 26 26 25 25 24 24 24 24 23 23
5 7 6 7 9 8 10 9 7 9 10 11 12 12 12 12 13 14 15 16 17 17 18 18 19 21 22 22 23 22 24 25 24 24 24 25 25 25 25 25 25 25 25 25
6 6 6 7 7 6 7 8 8 9 10 11 11 12 13 12 13 13 14 15 16 17 17 18 18 18 19 22 21 21 22 23 24 25 25 25 24 25 25 25 25 25 25 25